Location: Dayton
(39.7590°N, 84.1920°W)
Time: 01:17:07
(UTC-04:00)

ATLAS CENTAUR R/B - Visible Passes

Search period start: 30 June 2015 00:00
Search period end: 10 July 2015 00:00
Orbit: 238 x 8831 km, 57.3° (Epoch: 20 June)

Date Brightness Start Highest point End Pass type
(mag) Time Alt. Az. Time Alt. Az. Time Alt. Az.
01 Jul 2.1 21:39:45 10° NNW 21:41:18 22° NE 21:43:09 10° E visible
02 Jul 2.5 22:51:45 10° WNW 22:53:27 22° SW 22:53:44 21° SSW visible
04 Jul 0.6 22:00:34 10° NW 22:02:24 64° SW 22:04:26 14° SE visible
07 Jul 3.1 22:20:07 10° W 22:21:31 15° SW 22:23:15 10° S visible
